CALSPHERE 1 1 00900U 64063C 25291.84145506 .00001040 00000+0 10560-2 0 9998 2 00900 90.2181 66.1821 0023822 303.8355 221.5187 13.76253668 38228 CALSPHERE 2 1 00902U 64063E 25291.87025067 .00000068 00000+0 89508-4 0 9991 2 00902 90.2315 70.0946 0017786 202.4668 328.7447 13.52876072823634 LCS 1 1 01361U 65034C 25291.93566344 .00000003 00000+0 -66765-3 0 9994 2 01361 32.1459 29.8351 0013539 347.4554 12.5606 9.89309162185997 TEMPSAT 1 1 01512U 65065E 25291.76517010 .00000060 00000+0 10294-3 0 9991 2 01512 89.9889 212.7167 0068623 205.3209 208.4951 13.33575343927873 CALSPHERE 4A 1 01520U 65065H 25291.80122451 .00000157 00000+0 28306-3 0 9996 2 01520 89.9091 124.7258 0071256 65.3942 307.1755 13.36224128930478 OPS 5712 (P/L 160) 1 02826U 67053A 25291.99133491 .00020198 00000+0 31585-2 0 9990 2 02826 69.9175 267.4544 0004847 317.4806 42.5963 14.72770514 30652 OPS 5712 (P/L 153) 1 02874U 67053H 25291.65303403 .00000093 00000+0 10555-3 0 9995 2 02874 69.9722 272.9943 0006285 174.1043 186.0138 13.96775608973058 RIGIDSPHERE 2 (LCS 4) 1 05398U 71067E 25291.88471914 .00001368 00000+0 44322-3 0 9992 2 05398 87.6223 45.7681 0058587 314.6959 44.9474 14.37418526839212 COSMOS 2493 (SKRL-756 1) 1 39490U 13078A 25291.94571892 .00005703 00000+0 45344-3 0 9995 2 39490 82.4118 136.8975 0013337 345.9391 14.1459 15.00200691641763 COSMOS 2494 (SKRL-756 2) 1 39491U 13078B 25291.96068571 .00007603 00000+0 56697-3 0 9997 2 39491 82.4104 127.2417 0016167 307.2991 52.6760 15.02644797642556